RH
48 41 31 33 39 42 44 48 47 44 42 43 50 57 57 56 57 52 56 54 36 31 30 30 31 30 29 32 46 88 88 98
28 32 32 29 32 39 45 50 51 47 43 45 53 60 61 61 62 58 56 59 48 36 36 33 32 31 32 32 40 84 86 92
27 21 25 32 34 40 46 49 51 49 46 46 50 61 66 68 68 65 59 60 61 43 41 38 35 34 33 34 38 52 76 86
93 74 55 50 46 44 45 49 50 50 48 48 48 50 60 67 72 72 68 62 65 58 46 45 41 38 35 35 37 41 59 86
84 98 97 86 78 73 70 70 73 63 57 52 50 51 53 57 62 69 71 69 67 68 54 50 47 44 39 36 37 38 53 82
60 83 98 99 100 95 88 76 77 88 87 78 69 60 58 59 61 61 65 69 68 69 67 52 51 50 46 41 39 39 41 74
52 53 81 90 85 91 95 84 88 77 90 88 87 88 88 80 73 67 64 69 77 76 72 64 55 54 52 48 44 42 45 64
55 54 61 63 75 88 94 99 95 87 81 95 95 98 87 88 94 91 90 94 90 78 74 73 67 61 58 54 53 52 50 63
46 41 41 41 58 83 98 99 98 99 92 89 95 94 92 90 84 90 93 97 100 80 77 80 87 76 65 60 59 61 58 61
56 46 40 41 49 74 98 99 97 96 90 84 90 93 92 92 96 95 93 92 94 100 96 70 65 74 75 68 67 65 69 75
38 37 37 39 41 41 53 62 66 81 87 91 88 93 94 93 90 91 94 97 97 99 100 96 75 66 82 84 79 73 76 91
45 44 42 39 37 33 32 32 31 36 50 58 68 77 89 95 92 96 90 90 96 100 100 100 98 89 83 91 89 86 86 90
43 39 34 42 38 32 27 24 24 24 28 30 39 44 46 49 62 77 79 84 93 99 99 100 100 99 100 100 98 96 91 96
40 38 35 39 35 32 34 30 29 32 34 39 47 47 40 33 33 31 52 99 99 99 100 100 99 100 100 100 100 100 100 99
45 42 32 38 34 28 25 28 31 29 31 31 39 45 50 58 45 49 35 33 61 99 100 100 98 100 100 97 99 96 98 100
42 40 35 38 41 35 35 53 53 52 54 43 36 32 34 36 67 75 72 54 42 45 76 86 100 100 100 100 91 89 98 98
38 35 34 39 39 31 35 40 42 38 42 35 29 30 35 55 74 81 76 76 74 65 53 53 89 100 100 100 100 97 96 84
37 40 40 41 42 48 46 47 43 43 30 27 32 48 48 58 77 82 92 90 92 92 84 60 53 61 96 100 98 99 97 100
35 37 38 41 50 57 49 56 56 50 56 70 83 62 54 66 61 80 84 90 92 100 92 87 78 63 62 70 88 100 99 100
34 37 42 51 58 56 58 52 37 46 66 82 86 81 70 80 87 91 86 95 89 90 97 90 74 79 83 79 82 91 100 97
Wind_Speed
4 3 5 10 12 12 13 14 14 14 13 14 14 16 18 18 17 17 16 16 14 14 13 13 12 11 12 13 17 18 15 14
6 6 6 9 12 13 14 14 15 15 14 15 16 17 19 21 21 22 21 20 18 18 16 16 15 14 14 15 18 21 17 13
6 7 7 7 11 14 15 16 16 17 17 18 18 20 21 23 25 24 24 23 22 22 20 19 19 18 17 18 19 23 19 16
8 10 10 9 8 10 14 16 18 19 20 21 22 23 24 25 26 26 28 28 28 26 25 23 23 22 21 21 23 23 24 18
3 10 10 12 13 12 13 12 12 16 22 25 25 26 27 28 29 29 32 32 33 31 30 29 28 27 25 24 24 24 27 21
6 5 7 9 8 11 13 16 17 16 16 18 24 29 29 30 31 33 35 37 37 37 36 35 33 32 29 28 27 26 27 28
5 1 4 11 13 11 11 14 17 19 18 17 18 21 23 25 32 34 37 38 38 37 39 40 39 36 34 32 30 29 29 33
9 7 6 5 8 9 10 10 13 17 19 21 22 24 24 26 29 32 36 38 40 39 39 39 42 40 37 37 34 31 31 36
9 11 10 5 5 6 8 12 17 17 19 22 20 23 26 28 31 33 34 38 40 41 41 40 39 39 41 40 39 35 32 39
8 10 10 11 9 5 7 10 13 17 20 23 24 26 26 27 28 35 38 38 41 43 45 46 40 40 43 44 43 39 37 40
11 13 13 13 11 10 8 10 13 15 16 21 25 28 28 29 32 31 34 37 42 45 48 50 46 44 45 43 43 42 41 43
11 14 15 15 14 14 12 14 13 13 14 16 19 25 30 32 32 33 34 35 38 44 46 48 53 46 46 45 40 38 44 47
10 14 15 17 22 23 23 24 23 21 20 20 22 22 23 25 28 29 31 35 34 39 44 49 54 50 48 45 48 47 49 51
12 14 16 17 21 23 25 27 28 27 26 24 24 25 27 27 28 31 32 29 31 36 43 50 55 53 51 40 31 43 54 54
12 14 17 18 21 24 28 30 33 36 37 36 35 31 28 26 30 30 29 29 31 29 31 51 44 47 52 38 17 22 32 52
13 18 20 20 23 27 31 31 34 36 38 40 41 41 38 31 27 31 33 32 32 31 32 28 33 43 46 56 44 35 13 10
16 23 22 24 31 36 35 37 36 35 38 42 42 40 35 27 22 29 34 29 29 28 26 30 27 24 39 39 42 32 39 28
14 13 17 23 28 29 31 32 36 42 44 41 42 38 38 29 25 28 24 26 27 24 23 25 28 34 20 29 41 40 37 41
18 22 26 25 22 21 31 35 41 47 46 40 41 41 38 39 30 30 30 29 20 24 23 21 20 26 35 40 35 35 45 40
18 20 19 16 17 27 31 39 46 48 47 42 43 41 39 33 26 27 29 24 26 34 24 21 20 26 29 32 32 38 41 48
Wind_Direction
210 210 216 208 211 216 216 215 215 218 221 223 225 228 230 233 235 235 238 242 245 249 241 239 234 227 213 195 188 172 175 196
262 253 248 235 229 225 226 225 227 228 229 229 229 232 234 235 237 238 240 243 244 247 244 242 239 232 219 208 199 193 191 219
292 290 273 265 249 241 237 237 235 235 234 234 233 233 236 238 240 242 245 247 247 247 245 242 241 235 226 217 208 205 200 215
285 315 324 327 310 283 258 250 248 248 245 242 241 240 240 243 244 247 247 248 248 248 248 245 243 240 233 225 218 209 205 211
71 228 271 313 322 321 314 290 290 272 260 252 248 247 246 244 244 243 246 246 246 245 244 243 243 244 239 234 229 219 208 215
83 125 190 226 259 288 297 302 300 295 308 275 259 256 254 252 250 247 246 247 246 246 246 245 243 243 240 240 235 229 215 219
17 15 198 226 228 249 266 289 290 293 294 287 279 273 266 265 260 258 254 251 249 248 249 248 245 240 241 239 238 236 224 218
339 334 320 301 237 239 235 275 281 277 276 268 267 268 266 262 257 250 254 258 255 248 249 249 246 242 239 243 241 239 228 221
354 6 11 347 327 251 223 235 256 261 270 273 269 267 268 269 263 257 252 250 255 258 250 248 245 242 240 240 243 240 231 221
358 5 3 12 8 317 270 257 264 269 271 271 274 268 266 264 262 263 262 257 252 252 255 254 246 242 240 237 237 238 232 223
17 20 24 20 13 9 345 312 297 295 301 296 285 286 280 273 270 268 264 264 261 254 248 251 249 245 239 238 237 235 230 227
22 15 19 2 9 356 355 352 350 341 325 316 299 289 292 292 289 281 274 269 266 261 253 247 246 251 243 241 245 240 234 231
15 10 21 0 358 355 350 344 339 333 330 322 314 314 310 303 298 292 281 279 273 268 266 253 242 242 239 228 237 233 228 229
358 9 10 360 348 344 337 331 327 325 320 312 310 308 305 304 303 304 303 292 278 270 267 244 240 238 224 223 222 218 226 224
7 1 356 352 343 335 330 325 322 322 321 318 317 311 304 299 301 303 299 298 295 276 265 243 239 228 224 218 218 224 214 215
340 339 339 338 338 333 328 327 326 323 319 314 314 314 315 307 297 298 301 298 292 292 287 285 258 234 230 217 235 229 192 223
332 323 324 327 329 325 322 319 314 317 316 314 312 315 316 317 310 297 291 295 299 295 282 280 283 287 260 225 218 227 217 224
351 341 329 325 325 320 318 322 319 320 322 317 312 313 317 306 296 302 299 287 288 293 291 281 287 281 295 251 229 219 231 215
335 328 325 324 317 313 306 312 317 316 317 314 312 306 309 306 296 297 303 290 292 302 287 287 292 288 288 287 288 249 224 227
320 325 323 310 299 313 313 313 314 312 309 304 301 306 314 316 311 298 288 296 307 290 296 286 284 287 285 277 285 278 247 237